| time (UTC) | temp F | wind direction | speed MPH | gust MPH | rain 1hr in | rain 24hr in | rain mn in | humidity % | barometer mb |
| 20260509112310 | 76 | 180 | 3.0 | 6.0 | 0.00 | 0.00 | 0.00 | 85 | 1011.9 |
| 20260509111224 | 76 | 135 | 4.0 | 7.0 | 0.00 | 0.00 | 0.00 | 85 | 1011.3 |
| 20260509110138 | 75 | 135 | 4.0 | 8.0 | 0.00 | 0.00 | 0.00 | 85 | 1010.9 |
| 20260509105051 | 75 | 135 | 5.0 | 7.0 | 0.00 | 0.00 | 0.00 | 84 | 1010.9 |
| 20260509104012 | 75 | 135 | 4.0 | 10.0 | 0.00 | 0.00 | 0.00 | 84 | 1010.5 |
| 20260509102923 | 75 | 113 | 4.0 | 9.0 | 0.00 | 0.00 | 0.00 | 84 | 1010.5 |
| 20260509102320 | 75 | 135 | 5.0 | 9.0 | 0.00 | 0.00 | 0.00 | 84 | 1010.5 |
| 20260509100751 | 75 | 135 | 6.0 | 7.0 | 0.00 | 0.00 | 0.00 | 83 | 1010.5 |
| 20260509095704 | 75 | 113 | 5.0 | 9.0 | 0.00 | 0.00 | 0.00 | 83 | 1010.5 |
| 20260509094621 | 75 | 135 | 6.0 | 11.0 | 0.00 | 0.00 | 0.00 | 83 | 1010.5 |
| 20260509093539 | 75 | 113 | 8.0 | 13.0 | 0.00 | 0.00 | 0.00 | 83 | 1010.5 |
| 20260509092448 | 75 | 113 | 8.0 | 10.0 | 0.00 | 0.00 | 0.00 | 83 | 1010.5 |
| 20260509091402 | 75 | 135 | 6.0 | 13.0 | 0.00 | 0.00 | 0.00 | 82 | 1010.9 |
| 20260509090319 | 75 | 113 | 6.0 | 9.0 | 0.00 | 0.00 | 0.00 | 82 | 1010.9 |
| 20260509085232 | 75 | 113 | 5.0 | 9.0 | 0.00 | 0.00 | 0.00 | 82 | 1011.5 |
| 20260509084145 | 75 | 113 | 4.0 | 7.0 | 0.00 | 0.00 | 0.00 | 82 | 1011.5 |
| 20260509083101 | 75 | 68 | 4.0 | 9.0 | 0.00 | 0.00 | 0.00 | 81 | 1011.2 |
| 20260509082010 | 75 | 68 | 7.0 | 8.0 | 0.00 | 0.00 | 0.00 | 81 | 1011.2 |
| 20260509080927 | 75 | 68 | 7.0 | 11.0 | 0.00 | 0.00 | 0.00 | 81 | 1011.2 |
| 20260509080148 | 75 | 135 | 6.0 | 9.0 | 0.00 | 0.00 | 0.00 | 80 | 1012.3 |
| 20260509075842 | 75 | 68 | 8.0 | 14.0 | 0.00 | 0.00 | 0.00 | 81 | 1012.3 |
| 20260509073707 | 75 | 113 | 4.0 | 7.0 | 0.00 | 0.00 | 0.00 | 80 | 1011.8 |
| 20260509072629 | 75 | 113 | 6.0 | 10.0 | 0.00 | 0.00 | 0.00 | 80 | 1011.8 |
| 20260509071538 | 75 | 135 | 6.0 | 10.0 | 0.00 | 0.00 | 0.00 | 80 | 1012.3 |
| 20260509070452 | 74 | 135 | 6.0 | 9.0 | 0.00 | 0.00 | 0.00 | 80 | 1012.3 |
| 20260509065842 | 74 | 135 | 8.0 | 13.0 | 0.00 | 0.00 | 0.00 | 80 | 1012.3 |
| 20260509064322 | 74 | 158 | 5.0 | 12.0 | 0.00 | 0.00 | 0.00 | 81 | 1012.3 |
| 20260509063234 | 74 | 113 | 7.0 | 11.0 | 0.00 | 0.00 | 0.00 | 80 | 1012.6 |
| 20260509062153 | 74 | 113 | 5.0 | 9.0 | 0.00 | 0.00 | 0.00 | 80 | 1012.6 |
| 20260509061542 | 74 | 90 | 8.0 | 14.0 | 0.00 | 0.00 | 0.00 | 80 | 1012.1 |
| 20260509060943 | 74 | 135 | 8.0 | 11.0 | 0.00 | 0.00 | 0.00 | 80 | 1013.2 |
| 20260509054929 | 74 | 135 | 8.0 | 10.0 | 0.00 | 0.00 | 0.00 | 79 | 1013.2 |
| 20260509053844 | 74 | 113 | 7.0 | 14.0 | 0.00 | 0.00 | 0.00 | 79 | 1013.1 |
| 20260509052758 | 74 | 135 | 6.0 | 12.0 | 0.00 | 0.00 | 0.00 | 80 | 1013.1 |
| 20260509051715 | 74 | 135 | 7.0 | 15.0 | 0.00 | 0.00 | 0.00 | 80 | 1013.4 |
| 20260509051058 | 74 | 113 | 6.0 | 11.0 | 0.00 | 0.00 | 0.00 | 80 | 1013.4 |
| 20260509045536 | 74 | 113 | 7.0 | 11.0 | 0.00 | 0.00 | 0.00 | 80 | 1013.5 |
| 20260509044930 | 74 | 113 | 6.0 | 10.0 | 0.00 | 0.00 | 0.00 | 81 | 1013.5 |
| 20260509043403 | 74 | 113 | 7.0 | 9.0 | 0.00 | 0.00 | 0.00 | 82 | 1013.2 |
| 20260509042320 | 74 | 90 | 5.0 | 15.0 | 0.00 | 0.00 | 0.00 | 83 | 1013.2 |
| 20260509041237 | 73 | 68 | 3.0 | 6.0 | 0.00 | 0.00 | 0.00 | 84 | 1013.3 |
| 20260509040146 | 73 | 113 | 2.0 | 3.0 | 0.00 | 0.00 | 0.00 | 84 | 1013.3 |
| 20260509035543 | 73 | 68 | 1.0 | 3.0 | 0.00 | 0.00 | 0.00 | 84 | 1013.4 |
| 20260509034019 | 73 | 68 | 1.0 | 3.0 | 0.00 | 0.00 | 0.00 | 84 | 1013.5 |
| 20260509033400 | 73 | 45 | 2.0 | 3.0 | 0.00 | 0.00 | 0.00 | 83 | 1013.5 |
| 20260509031843 | 73 | 68 | 2.0 | 3.0 | 0.00 | 0.00 | 0.00 | 83 | 1013.2 |
| 20260509030803 | 73 | 113 | 4.0 | 7.0 | 0.00 | 0.00 | 0.00 | 83 | 1013.2 |
| 20260509025712 | 73 | 90 | 4.0 | 6.0 | 0.00 | 0.00 | 0.00 | 83 | 1012.9 |
| 20260509025100 | 73 | 68 | 3.0 | 5.0 | 0.00 | 0.00 | 0.00 | 83 | 1012.9 |
| 20260509023539 | 73 | 45 | 5.0 | 8.0 | 0.00 | 0.00 | 0.00 | 83 | 1012.2 |
| 20260509022455 | 73 | 113 | 6.0 | 12.0 | 0.00 | 0.00 | 0.00 | 83 | 1012.2 |
| 20260509021411 | 73 | 68 | 5.0 | 9.0 | 0.00 | 0.00 | 0.00 | 83 | 1012.2 |
| 20260509020330 | 73 | 90 | 5.0 | 9.0 | 0.00 | 0.00 | 0.00 | 83 | 1012.2 |
| 20260509015235 | 73 | 135 | 9.0 | 15.0 | 0.00 | 0.00 | 0.00 | 83 | 1012.2 |
| 20260509014149 | 73 | 270 | 7.0 | 11.0 | 0.00 | 0.00 | 0.00 | 83 | 1012.2 |
| 20260509013104 | 72 | 90 | 7.0 | 11.0 | 0.00 | 0.00 | 0.00 | 83 | 1012.1 |
| 20260509012030 | 72 | 113 | 7.0 | 10.0 | 0.00 | 0.00 | 0.00 | 83 | 1011.6 |
| 20260509010931 | 72 | 113 | 5.0 | 6.0 | 0.00 | 0.00 | 0.00 | 83 | 1011.6 |
| 20260509010334 | 72 | 68 | 5.0 | 9.0 | 0.00 | 0.00 | 0.00 | 83 | 1012.4 |
| 20260509005233 | 72 | 113 | 5.0 | 10.0 | 0.00 | 0.00 | 0.00 | 83 | 1012.4 |
| 20260509003711 | 72 | 68 | 6.0 | 10.0 | 0.00 | 0.00 | 0.00 | 83 | 1012.3 |
| 20260509003059 | 72 | 68 | 5.0 | 9.0 | 0.00 | 0.00 | 0.00 | 83 | 1012.3 |
| 20260509001534 | 72 | 90 | 5.0 | 6.0 | 0.00 | 0.00 | 0.00 | 84 | 1012.6 |
| 20260509000449 | 72 | 68 | 5.0 | 12.0 | 0.00 | 0.00 | 0.00 | 84 | 1012.6 |
| 20260508235408 | 72 | 68 | 4.0 | 6.0 | 0.00 | 0.00 | 0.00 | 84 | 1013.0 |
| 20260508234318 | 72 | 68 | 4.0 | 8.0 | 0.00 | 0.00 | 0.00 | 84 | 1013.0 |
| 20260508233229 | 71 | 45 | 5.0 | 9.0 | 0.00 | 0.00 | 0.00 | 85 | 1013.1 |
| 20260508232144 | 71 | 23 | 6.0 | 14.0 | 0.00 | 0.00 | 0.00 | 85 | 1013.1 |
| 20260508231059 | 71 | 315 | 6.0 | 10.0 | 0.00 | 0.00 | 0.00 | 85 | 1012.7 |
| 20260508230022 | 71 | 45 | 6.0 | 10.0 | 0.00 | 0.00 | 0.00 | 85 | 1013.2 |
| 20260508224933 | 70 | 45 | 6.0 | 9.0 | 0.00 | 0.00 | 0.00 | 85 | 1013.2 |
| 20260508223841 | 70 | 68 | 7.0 | 13.0 | 0.00 | 0.00 | 0.00 | 85 | 1013.2 |
| 20260508222754 | 70 | 45 | 7.0 | 10.0 | 0.00 | 0.00 | 0.00 | 85 | 1013.2 |
| 20260508221709 | 70 | 68 | 9.0 | 15.0 | 0.00 | 0.00 | 0.00 | 85 | 1013.7 |
| 20260508220621 | 70 | 45 | 8.0 | 11.0 | 0.00 | 0.00 | 0.00 | 85 | 1013.7 |
| 20260508215535 | 70 | 23 | 9.0 | 17.0 | 0.00 | 0.00 | 0.00 | 84 | 1013.9 |
| 20260508214455 | 70 | 23 | 10.0 | 19.0 | 0.00 | 0.00 | 0.00 | 84 | 1013.9 |
| 20260508213407 | 71 | 338 | 9.0 | 16.0 | 0.00 | 0.00 | 0.00 | 83 | 1014.2 |
| 20260508212320 | 71 | 23 | 8.0 | 14.0 | 0.00 | 0.00 | 0.00 | 83 | 1014.2 |
| 20260508211233 | 71 | 315 | 11.0 | 15.0 | 0.00 | 0.00 | 0.00 | 82 | 1014.3 |
| 20260508210146 | 72 | 23 | 11.0 | 16.0 | 0.00 | 0.00 | 0.00 | 79 | 1014.3 |
| 20260508205101 | 73 | 23 | 9.0 | 16.0 | 0.00 | 0.00 | 0.00 | 76 | 1014.8 |
| 20260508204510 | 76 | 315 | 11.0 | 20.0 | 0.00 | 0.00 | 0.00 | 72 | 1013.8 |
| 20260508202930 | 78 | 293 | 9.0 | 18.0 | 0.00 | 0.00 | 0.00 | 68 | 1013.8 |
| 20260508201846 | 83 | 135 | 5.0 | 11.0 | 0.00 | 0.00 | 0.00 | 70 | 1013.2 |
| 20260508200801 | 83 | 203 | 6.0 | 15.0 | 0.00 | 0.00 | 0.00 | 70 | 1013.2 |
| 20260508195718 | 84 | 158 | 10.0 | 13.0 | 0.00 | 0.00 | 0.00 | 70 | 1012.4 |
| 20260508194629 | 84 | 158 | 9.0 | 9.0 | 0.00 | 0.00 | 0.00 | 69 | 1012.4 |
| 20260508193548 | 84 | 158 | 7.0 | 15.0 | 0.00 | 0.00 | 0.00 | 70 | 1013.2 |
| 20260508192459 | 84 | 135 | 8.0 | 12.0 | 0.00 | 0.00 | 0.00 | 71 | 1013.2 |
| 20260508191413 | 83 | 113 | 7.0 | 11.0 | 0.00 | 0.00 | 0.00 | 72 | 1013.1 |
| 20260508190805 | 83 | 135 | 8.0 | 12.0 | 0.00 | 0.00 | 0.00 | 71 | 1013.1 |
| 20260508185242 | 83 | 68 | 7.0 | 12.0 | 0.00 | 0.00 | 0.00 | 72 | 1013.4 |
| 20260508184633 | 83 | 158 | 8.0 | 12.0 | 0.00 | 0.00 | 0.00 | 72 | 1013.4 |
| 20260508183115 | 82 | 158 | 8.0 | 10.0 | 0.00 | 0.00 | 0.00 | 73 | 1013.5 |
| 20260508182031 | 82 | 158 | 6.0 | 11.0 | 0.00 | 0.00 | 0.00 | 75 | 1013.6 |
| 20260508180939 | 81 | 90 | 5.0 | 9.0 | 0.00 | 0.00 | 0.00 | 76 | 1013.6 |
| 20260508180331 | 81 | 248 | 6.0 | 11.0 | 0.00 | 0.00 | 0.00 | 76 | 1013.8 |
| 20260508174809 | 81 | 90 | 6.0 | 7.0 | 0.00 | 0.00 | 0.00 | 77 | 1013.8 |
| 20260508173723 | 80 | 135 | 5.0 | 10.0 | 0.00 | 0.00 | 0.00 | 78 | 1013.7 |
| 20260508172640 | 80 | 68 | 7.0 | 13.0 | 0.00 | 0.00 | 0.00 | 79 | 1013.7 |
| 20260508171550 | 79 | 90 | 7.0 | 9.0 | 0.00 | 0.00 | 0.00 | 82 | 1013.8 |
| 20260508170505 | 79 | 68 | 7.0 | 9.0 | 0.00 | 0.00 | 0.00 | 83 | 1013.8 |
| 20260508165418 | 78 | 248 | 6.0 | 13.0 | 0.00 | 0.00 | 0.00 | 84 | 1014.3 |
| 20260508164331 | 77 | 113 | 5.0 | 9.0 | 0.00 | 0.00 | 0.00 | 85 | 1014.3 |
| 20260508163728 | 76 | 45 | 6.0 | 8.0 | 0.00 | 0.00 | 0.00 | 85 | 1014.4 |
| 20260508162205 | 75 | 45 | 6.0 | 8.0 | 0.00 | 0.00 | 0.00 | 85 | 1014.4 |
| 20260508161559 | 75 | 0 | 5.0 | 7.0 | 0.00 | 0.00 | 0.00 | 85 | 1015.2 |
| 20260508160512 | 74 | 90 | 7.0 | 12.0 | 0.00 | 0.00 | 0.00 | 85 | 1014.7 |
| 20260508154940 | 75 | 45 | 6.0 | 11.0 | 0.00 | 0.00 | 0.00 | 86 | 1014.7 |
| 20260508153856 | 74 | 68 | 6.0 | 13.0 | 0.00 | 0.00 | 0.00 | 86 | 1014.9 |
| 20260508152811 | 74 | 45 | 5.0 | 13.0 | 0.00 | 0.00 | 0.00 | 86 | 1014.9 |
| 20260508151727 | 73 | 23 | 4.0 | 12.0 | 0.00 | 0.00 | 0.00 | 87 | 1014.9 |
| 20260508150637 | 73 | 68 | 5.0 | 11.0 | 0.00 | 0.00 | 0.00 | 87 | 1014.9 |
| 20260508145551 | 73 | 45 | 6.0 | 11.0 | 0.00 | 0.00 | 0.00 | 87 | 1014.8 |
| 20260508144504 | 72 | 68 | 6.0 | 10.0 | 0.00 | 0.00 | 0.00 | 87 | 1014.8 |
| 20260508143420 | 72 | 23 | 5.0 | 11.0 | 0.00 | 0.00 | 0.00 | 87 | 1014.7 |
| 20260508142333 | 71 | 68 | 6.0 | 11.0 | 0.00 | 0.00 | 0.00 | 87 | 1014.7 |
| 20260508141250 | 71 | 68 | 4.0 | 7.0 | 0.00 | 0.00 | 0.00 | 87 | 1014.7 |
| 20260508140203 | 71 | 45 | 5.0 | 14.0 | 0.00 | 0.00 | 0.00 | 87 | 1014.7 |
| 20260508135120 | 71 | 68 | 4.0 | 11.0 | 0.00 | 0.00 | 0.00 | 87 | 1014.7 |
| 20260508134034 | 70 | 23 | 6.0 | 10.0 | 0.00 | 0.00 | 0.00 | 87 | 1014.9 |
| 20260508132945 | 70 | 68 | 5.0 | 9.0 | 0.00 | 0.00 | 0.00 | 87 | 1014.9 |
| 20260508131902 | 70 | 68 | 5.0 | 8.0 | 0.00 | 0.00 | 0.00 | 87 | 1015.2 |
| 20260508130821 | 70 | 68 | 5.0 | 9.0 | 0.00 | 0.00 | 0.00 | 87 | 1015.2 |
| 20260508125728 | 71 | 68 | 6.0 | 10.0 | 0.00 | 0.00 | 0.00 | 87 | 1015.3 |
| 20260508124643 | 71 | 45 | 6.0 | 12.0 | 0.00 | 0.00 | 0.00 | 87 | 1015.3 |
| 20260508124045 | 71 | 0 | 8.0 | 11.0 | 0.00 | 0.00 | 0.00 | 87 | 1015.2 |
| 20260508122512 | 71 | 338 | 8.0 | 12.0 | 0.00 | 0.00 | 0.00 | 87 | 1015.2 |
| 20260508121426 | 71 | 338 | 7.0 | 9.0 | 0.00 | 0.00 | 0.00 | 87 | 1015.2 |
| 20260508120344 | 71 | 0 | 7.0 | 10.0 | 0.00 | 0.00 | 0.00 | 87 | 1015.2 |
| 20260508115251 | 71 | 338 | 5.0 | 8.0 | 0.00 | 0.00 | 0.00 | 87 | 1013.4 |
| 20260508114205 | 71 | 45 | 6.0 | 9.0 | 0.00 | 0.00 | 0.00 | 87 | 1013.4 |
| 20260508113121 | 71 | 68 | 5.0 | 9.0 | 0.00 | 0.00 | 0.00 | 87 | 1014.2 |